When you browse on this site, cookies collect data to enhance your experience and personalize the content and advertising you see.
Visit our Privacy Policy to learn more. By continuing to use the site, you agree to this use of cookies and data.
  • In Latvia
  • List of Countries
  • For 7 days
  • Water Temperature
  • Satellite Maps
  • Weather Map
  • Weather Widgets
  • user-avatar
    Login

    Hourly Weather San Luis

    Today, 25 May, Saturday

    Time Temperature Precipitation Wind Pressure Humidity
    00:00 +13°C° 0 mm 5 mps 696 mmHg 20%
    01:00 +13°C° 0 mm 5 mps 696 mmHg 21%
    02:00 +13°C° 0 mm 5 mps 696 mmHg 23%
    03:00 +12°C° 0 mm 5 mps 695 mmHg 24%
    04:00 +12°C° 0 mm 5 mps 695 mmHg 25%
    05:00 +12°C° 0 mm 5 mps 695 mmHg 27%
    06:00 +12°C° 0 mm 4 mps 695 mmHg 29%
    07:00 +13°C° 0 mm 4 mps 695 mmHg 30%
    08:00 +13°C° 0 mm 4 mps 695 mmHg 32%
    09:00 +15°C° 0 mm 4 mps 695 mmHg 30%
    10:00 +17°C° 0 mm 4 mps 695 mmHg 27%
    11:00 +19°C° 0 mm 5 mps 696 mmHg 25%
    12:00 +20°C° 0 mm 5 mps 695 mmHg 25%
    13:00 +20°C° 0 mm 5 mps 695 mmHg 24%
    14:00 +21°C° 0 mm 4 mps 695 mmHg 23%
    15:00 +20°C° 0 mm 4 mps 694 mmHg 27%
    16:00 +19°C° 0 mm 3 mps 694 mmHg 31%
    17:00 +17°C° 0 mm 2 mps 694 mmHg 35%
    18:00 +16°C° 0 mm 2 mps 694 mmHg 38%
    19:00 +14°C° 0 mm 2 mps 694 mmHg 42%
    20:00 +12°C° 0 mm 2 mps 694 mmHg 45%
    21:00 +12°C° 0 mm 2 mps 694 mmHg 46%
    22:00 +10°C° 0 mm 2 mps 694 mmHg 46%
    23:00 +10°C° 0 mm 2 mps 694 mmHg 47%

    Tomorrow, 26 May, Sunday

    Time Temperature Precipitation Wind Pressure Humidity
    00:00 +10°C° 0 mm 2 mps 694 mmHg 50%
    01:00 +10°C° 0 mm 3 mps 694 mmHg 53%
    02:00 +10°C° 0 mm 3 mps 694 mmHg 56%
    03:00 +9°C° 0 mm 2 mps 694 mmHg 60%
    04:00 +9°C° 0 mm 2 mps 694 mmHg 64%
    05:00 +8°C° 0 mm 2 mps 694 mmHg 67%
    06:00 +10°C° 0 mm 1 mps 694 mmHg 67%
    07:00 +10°C° 0 mm 1 mps 695 mmHg 67%
    08:00 +10°C° 0 mm 1 mps 695 mmHg 66%
    09:00 +12°C° 0 mm 1 mps 696 mmHg 58%
    10:00 +15°C° 0 mm 1 mps 697 mmHg 50%
    11:00 +18°C° 0 mm 1 mps 698 mmHg 41%
    12:00 +19°C° 0 mm 1 mps 697 mmHg 39%
    13:00 +20°C° 0 mm 1 mps 697 mmHg 36%
    14:00 +20°C° 0 mm 1 mps 697 mmHg 33%
    15:00 +18°C° 0 mm 2 mps 697 mmHg 36%
    16:00 +18°C° 0 mm 2 mps 697 mmHg 39%
    17:00 +17°C° 0 mm 2 mps 697 mmHg 42%
    18:00 +14°C° 0 mm 3 mps 697 mmHg 45%
    19:00 +13°C° 0 mm 3 mps 697 mmHg 48%
    20:00 +12°C° 0 mm 3 mps 697 mmHg 51%
    21:00 +11°C° 0 mm 3 mps 697 mmHg 49%
    22:00 +11°C° 0 mm 3 mps 698 mmHg 48%
    23:00 +11°C° 0 mm 3 mps 698 mmHg 47%

    Day after tomorrow, 27 May, Monday

    Time Temperature Precipitation Wind Pressure Humidity
    00:00 +10°C° 0 mm 3 mps 698 mmHg 47%
    01:00 +10°C° 0 mm 3 mps 698 mmHg 48%
    02:00 +9°C° 0 mm 3 mps 698 mmHg 48%
    03:00 +9°C° 0 mm 2 mps 697 mmHg 50%
    04:00 +8°C° 0 mm 2 mps 697 mmHg 52%
    05:00 +8°C° 0 mm 2 mps 697 mmHg 54%
    06:00 +8°C° 0 mm 2 mps 697 mmHg 53%
    07:00 +9°C° 0 mm 2 mps 697 mmHg 52%
    08:00 +9°C° 0 mm 2 mps 698 mmHg 50%
    09:00 +13°C° 0 mm 2 mps 698 mmHg 43%
    10:00 +15°C° 0 mm 2 mps 698 mmHg 36%
    11:00 +18°C° 0 mm 2 mps 699 mmHg 28%
    12:00 +18°C° 0 mm 2 mps 698 mmHg 27%
    13:00 +19°C° 0 mm 2 mps 697 mmHg 26%
    14:00 +21°C° 0 mm 1 mps 696 mmHg 24%
    15:00 +20°C° 0 mm 1 mps 696 mmHg 28%
    16:00 +18°C° 0 mm 2 mps 696 mmHg 32%
    17:00 +16°C° 0 mm 2 mps 695 mmHg 35%
    18:00 +15°C° 0 mm 2 mps 695 mmHg 40%
    19:00 +14°C° 0 mm 2 mps 695 mmHg 46%
    20:00 +12°C° 0 mm 2 mps 695 mmHg 51%
    21:00 +12°C° 0 mm 2 mps 695 mmHg 51%
    22:00 +12°C° 0 mm 2 mps 695 mmHg 50%
    23:00 +12°C° 0 mm 2 mps 695 mmHg 50%

    28 May, Tuesday

    Time Temperature Precipitation Wind Pressure Humidity
    00:00 +12°C° 0 mm 2 mps 695 mmHg 49%
    01:00 +12°C° 0 mm 2 mps 695 mmHg 48%
    02:00 +12°C° 0 mm 2 mps 695 mmHg 47%
    03:00 +12°C° 0 mm 2 mps 695 mmHg 53%
    04:00 +10°C° 0 mm 2 mps 694 mmHg 59%
    05:00 +10°C° 0 mm 2 mps 694 mmHg 66%
    06:00 +10°C° 0 mm 2 mps 695 mmHg 68%
    07:00 +10°C° 0 mm 2 mps 695 mmHg 70%
    08:00 +10°C° 0 mm 2 mps 696 mmHg 72%
    09:00 +13°C° 0 mm 2 mps 697 mmHg 64%
    10:00 +15°C° 0 mm 1 mps 697 mmHg 55%
    11:00 +18°C° 0 mm 1 mps 698 mmHg 46%
    12:00 +18°C° 0 mm 2 mps 698 mmHg 43%
    13:00 +18°C° 0 mm 2 mps 697 mmHg 39%
    14:00 +19°C° 0 mm 2 mps 697 mmHg 36%
    15:00 +18°C° 0 mm 3 mps 697 mmHg 37%
    16:00 +17°C° 0 mm 3 mps 697 mmHg 38%
    17:00 +17°C° 0 mm 3 mps 697 mmHg 40%
    18:00 +16°C° 0 mm 3 mps 697 mmHg 44%
    19:00 +14°C° 0 mm 4 mps 697 mmHg 49%
    20:00 +12°C° 0 mm 4 mps 697 mmHg 53%
    21:00 +12°C° 0 mm 4 mps 697 mmHg 54%
    22:00 +12°C° 0 mm 4 mps 698 mmHg 55%
    23:00 +12°C° 0 mm 4 mps 698 mmHg 56%

    29 May, Wednesday

    Time Temperature Precipitation Wind Pressure Humidity
    00:00 +12°C° 0 mm 3 mps 698 mmHg 56%
    01:00 +12°C° 0 mm 3 mps 697 mmHg 56%
    02:00 +12°C° 0 mm 3 mps 697 mmHg 56%
    03:00 +12°C° 0 mm 3 mps 697 mmHg 57%
    04:00 +11°C° 0 mm 3 mps 697 mmHg 57%
    05:00 +11°C° 0 mm 3 mps 696 mmHg 57%
    06:00 +12°C° 0 mm 2 mps 697 mmHg 60%
    07:00 +12°C° 0 mm 2 mps 697 mmHg 62%
    08:00 +12°C° 0 mm 2 mps 697 mmHg 64%
    09:00 +13°C° 0.2 mm 2 mps 698 mmHg 63%
    10:00 +14°C° 0.2 mm 3 mps 698 mmHg 61%
    11:00 +17°C° 0.2 mm 3 mps 698 mmHg 60%
    12:00 +16°C° 0.8 mm 3 mps 698 mmHg 63%
    13:00 +16°C° 0.8 mm 2 mps 697 mmHg 67%
    14:00 +15°C° 0.8 mm 2 mps 696 mmHg 70%
    15:00 +15°C° 0.3 mm 2 mps 696 mmHg 71%
    16:00 +15°C° 0.3 mm 2 mps 696 mmHg 73%
    17:00 +15°C° 0.3 mm 1 mps 696 mmHg 74%
    18:00 +14°C° 0 mm 1 mps 696 mmHg 77%
    19:00 +13°C° 0 mm 1 mps 697 mmHg 80%
    20:00 +12°C° 0 mm 1 mps 697 mmHg 83%
    21:00 +12°C° 0 mm 1 mps 697 mmHg 84%
    22:00 +11°C° 0 mm 1 mps 697 mmHg 85%
    23:00 +11°C° 0 mm 1 mps 697 mmHg 86%

    30 May, Thursday

    Time Temperature Precipitation Wind Pressure Humidity
    00:00 +11°C° 0 mm 1 mps 697 mmHg 85%
    01:00 +11°C° 0 mm 1 mps 697 mmHg 85%
    02:00 +10°C° 0 mm 2 mps 697 mmHg 84%
    03:00 +10°C° 0 mm 1 mps 697 mmHg 88%
    04:00 +9°C° 0 mm 1 mps 697 mmHg 91%
    05:00 +8°C° 0 mm 1 mps 697 mmHg 94%
    06:00 +9°C° 0 mm 1 mps 697 mmHg 94%
    07:00 +9°C° 0 mm 1 mps 698 mmHg 94%
    08:00 +8°C° 0 mm 0 mps 698 mmHg 95%
    09:00 +11°C° 0 mm 1 mps 699 mmHg 86%
    10:00 +13°C° 0 mm 1 mps 699 mmHg 77%
    11:00 +15°C° 0 mm 2 mps 700 mmHg 69%
    12:00 +16°C° 0 mm 2 mps 699 mmHg 65%
    13:00 +16°C° 0 mm 2 mps 699 mmHg 61%
    14:00 +17°C° 0 mm 2 mps 698 mmHg 57%
    15:00 +16°C° 0 mm 2 mps 698 mmHg 59%
    16:00 +16°C° 0 mm 2 mps 697 mmHg 61%
    17:00 +15°C° 0 mm 2 mps 697 mmHg 63%
    18:00 +14°C° 0 mm 2 mps 697 mmHg 70%
    19:00 +13°C° 0 mm 1 mps 697 mmHg 77%
    20:00 +12°C° 0 mm 1 mps 697 mmHg 84%
    21:00 +11°C° 0 mm 1 mps 697 mmHg 86%
    22:00 +10°C° 0 mm 1 mps 697 mmHg 89%
    23:00 +8°C° 0 mm 0 mps 696 mmHg 91%
    Show more